HP3ICC-17 Weather Reports


time (UTC)temp
C
wind
direction
speed
KPH
gust
KPH
rain 1hr
cm
rain 24hr
cm
rain mn
cm
humidity
%
barometer
mb
20260503014211 23 226 3.2 1.6 0.00 0.00 0.00 86 1011.0
20260503014111 23 226 3.2 1.6 0.00 0.00 0.00 86 1011.0
20260503012210 22 246 1.6 4.8 0.00 0.00 0.00 85 1011.0
20260503012110 22 246 1.6 4.8 0.00 0.00 0.00 85 1011.0
20260503010210 23 246 1.6 4.8 0.00 0.00 0.00 85 1011.0
20260503010109 23 246 1.6 4.8 0.00 0.00 0.00 85 1011.0
20260503004209 23 246 1.6 4.8 0.00 0.00 0.00 85 1011.0
20260503004109 23 246 1.6 4.8 0.00 0.00 0.00 85 1011.0
20260503002208 24 246 3.2 4.8 0.03 0.00 0.00 85 1010.0
20260503002108 24 246 3.2 4.8 0.03 0.00 0.00 85 1010.0
20260503000208 22 278 4.8 4.8 0.03 0.00 0.00 85 1010.0
20260503000107 22 278 4.8 4.8 0.03 0.00 0.00 85 1010.0
20260502234207 23 278 4.8 4.8 0.00 0.00 0.00 85 1010.0
20260502234107 23 278 4.8 4.8 0.00 0.00 0.00 85 1010.0
20260502232207 23 278 4.8 4.8 0.00 0.00 0.00 85 1009.0
20260502232106 23 278 4.8 4.8 0.00 0.00 0.00 85 1009.0
20260502230206 23 278 4.8 4.8 0.00 0.00 0.00 85 1009.0
20260502230106 23 278 4.8 4.8 0.00 0.00 0.00 85 1009.0
20260502224206 23 278 4.8 4.8 0.00 0.00 0.00 85 1009.0
20260502224105 23 278 4.8 4.8 0.00 0.00 0.00 85 1009.0
20260502222205 23 315 1.6 4.8 0.00 0.00 0.00 84 1009.0
20260502222105 23 315 1.6 4.8 0.00 0.00 0.00 84 1009.0
20260502220205 23 315 1.6 4.8 0.00 0.00 0.00 84 1009.0
20260502220104 23 315 1.6 4.8 0.00 0.00 0.00 84 1009.0
20260502214204 24 315 1.6 4.8 0.00 0.00 0.00 84 1009.0
20260502214104 24 315 1.6 4.8 0.00 0.00 0.00 84 1009.0
20260502212203 25 315 1.6 4.8 0.00 0.00 0.00 84 1009.0
20260502212103 25 315 1.6 4.8 0.00 0.00 0.00 84 1009.0
20260502210203 25 315 3.2 4.8 0.00 0.00 0.00 84 1009.0
20260502204202 23 309 4.8 8.0 0.00 0.00 0.00 83 1009.0
20260502204102 23 309 4.8 8.0 0.00 0.00 0.00 83 1009.0
20260502202201 24 309 4.8 8.0 0.00 0.00 0.00 83 1010.0
20260502202101 24 309 4.8 8.0 0.00 0.00 0.00 83 1010.0
20260502200201 25 309 4.8 8.0 0.00 0.00 0.00 83 1010.0
20260502200101 25 309 4.8 8.0 0.00 0.00 0.00 83 1010.0
20260502194200 25 309 4.8 8.0 0.00 0.00 0.00 83 1010.0
20260502194100 25 309 4.8 8.0 0.00 0.00 0.00 83 1010.0
20260502192200 23 309 8.0 12.9 0.00 0.00 0.00 83 1010.0
20260502192100 23 309 8.0 12.9 0.00 0.00 0.00 83 1010.0
20260502190200 24 309 8.0 12.9 0.00 0.00 0.00 83 1010.0
20260502190059 24 309 8.0 12.9 0.00 0.00 0.00 83 1010.0
20260502184159 25 309 8.0 12.9 0.00 0.00 0.00 83 1010.0
20260502184059 25 309 8.0 12.9 0.00 0.00 0.00 83 1010.0
20260502182159 25 309 8.0 12.9 0.03 0.00 0.00 83 1011.0
20260502182058 25 309 8.0 12.9 0.03 0.00 0.00 83 1011.0
20260502180158 24 310 8.0 11.3 0.00 0.00 0.00 83 1011.0
20260502170157 26 310 8.0 11.3 0.03 0.00 0.00 83 1012.0
20260502164156 24 303 6.4 11.3 0.03 0.00 0.00 85 1012.0
20260502164056 24 303 6.4 11.3 0.03 0.00 0.00 85 1012.0
20260502162156 25 303 6.4 11.3 0.00 0.00 0.00 85 1012.0
20260502162055 25 303 6.4 11.3 0.00 0.00 0.00 85 1012.0
20260502160155 25 303 6.4 11.3 0.03 0.00 0.00 85 1012.0
20260502152154 23 302 4.8 8.0 0.00 0.00 0.00 86 1012.0
20260502152054 23 302 4.8 8.0 0.00 0.00 0.00 86 1012.0
20260502150153 23 302 4.8 8.0 0.00 0.00 0.00 86 1012.0
20260502130151 24 280 4.8 9.7 0.03 0.00 0.00 84 1011.0
20260502122150 23 274 4.8 8.0 0.00 0.00 0.00 86 1010.0
20260502122050 23 274 4.8 8.0 0.00 0.00 0.00 86 1010.0
20260502120150 23 274 4.8 8.0 0.00 0.00 0.00 86 1010.0
20260502114149 24 274 4.8 9.7 0.00 0.00 0.00 86 1010.0
20260502114049 24 274 4.8 9.7 0.00 0.00 0.00 86 1010.0
20260502112148 22 289 4.8 8.0 0.00 0.00 0.00 87 1009.0
20260502112048 22 289 4.8 8.0 0.00 0.00 0.00 87 1009.0
20260502110148 23 289 4.8 8.0 0.00 0.00 0.00 87 1009.0
20260502110047 23 289 4.8 8.0 0.00 0.00 0.00 87 1009.0
20260502104147 23 289 4.8 8.0 0.00 0.00 0.00 87 1009.0
20260502104047 23 289 4.8 8.0 0.00 0.00 0.00 87 1009.0
20260502102147 24 289 4.8 8.0 0.00 0.00 0.00 87 1009.0
20260502102047 24 289 4.8 8.0 0.00 0.00 0.00 87 1009.0
20260502100146 22 299 6.4 8.0 0.00 0.00 0.00 87 1009.0
20260502090145 22 299 6.4 8.0 0.00 0.00 0.00 87 1009.0
20260502070142 22 272 4.8 6.4 0.00 0.00 0.00 86 1009.0
20260502070042 22 272 4.8 6.4 0.00 0.00 0.00 86 1009.0
20260502064142 23 272 4.8 6.4 0.00 0.00 0.00 86 1009.0
20260502064042 23 272 4.8 6.4 0.00 0.00 0.00 86 1009.0
20260502062141 22 279 4.8 6.4 0.00 0.00 0.00 84 1010.0
20260502062041 22 279 4.8 6.4 0.00 0.00 0.00 84 1010.0
20260502060141 23 279 4.8 6.4 0.00 0.00 0.00 84 1010.0
20260502060040 23 279 4.8 6.4 0.00 0.00 0.00 84 1010.0
20260502054140 23 279 4.8 6.4 0.00 0.00 0.00 84 1010.0
20260502054040 23 279 4.8 6.4 0.00 0.00 0.00 84 1010.0
20260502052140 24 279 4.8 6.4 0.00 0.00 0.00 84 1010.0
20260502052040 24 279 4.8 6.4 0.00 0.00 0.00 84 1010.0
20260502050139 22 277 4.8 6.4 0.00 0.00 0.00 84 1010.0
20260502050039 22 277 4.8 6.4 0.00 0.00 0.00 84 1010.0
20260502044139 23 277 4.8 6.4 0.00 0.00 0.00 84 1010.0
20260502044039 23 277 4.8 6.4 0.00 0.00 0.00 84 1010.0
20260502042138 23 277 4.8 6.4 0.00 0.00 0.00 84 1010.0
20260502042038 23 277 4.8 6.4 0.00 0.00 0.00 84 1010.0
20260502040138 22 277 4.8 6.4 0.00 0.00 0.00 84 1010.0
20260502040038 22 277 4.8 6.4 0.00 0.00 0.00 84 1010.0
20260502034137 23 277 4.8 6.4 0.00 0.00 0.00 84 1010.0
20260502034037 23 277 4.8 6.4 0.00 0.00 0.00 84 1010.0
20260502032137 23 262 4.8 4.8 0.00 0.00 0.00 82 1010.0
20260502032037 23 262 4.8 4.8 0.00 0.00 0.00 82 1010.0
20260502030136 23 262 4.8 4.8 0.00 0.00 0.00 82 1010.0
20260502030036 23 262 4.8 4.8 0.00 0.00 0.00 82 1010.0
20260502024136 23 246 1.6 1.6 0.00 0.00 0.00 79 1010.0
20260502024036 23 246 1.6 1.6 0.00 0.00 0.00 79 1010.0
20260502022135 23 246 3.2 3.2 0.00 0.00 0.00 79 1010.0
20260502022035 23 246 3.2 3.2 0.00 0.00 0.00 79 1010.0
20260502020135 23 270 1.6 4.8 0.00 0.00 0.00 78 1010.0
20260502020035 23 270 1.6 4.8 0.00 0.00 0.00 78 1010.0